Weather History for K4A9 - January, 2013

Change the Weather History Date:

Wednesday, January 23, 2013

  Actual Average (KRMG) Record (KRMG)
Temperature  
Mean Temperature 42 °F 41 °F  
Max Temperature 53 °F 52 °F 69 °F (1999)
Min Temperature 32 °F 30 °F 12 °F (2003)
Degree Days  
Heating Degree Days 22 24  
Month to date heating degree days 552  
Since 1 July heating degree days 1852  
Moisture  
Dew Point 25 °F    
Average Humidity 51    
Maximum Humidity 64    
Minimum Humidity 36    
Precipitation  
Precipitation 0.00 in 0.19 in 2.45 in (1999)
Month to date precipitation 3.31  
Year to date precipitation 3.31  
Sea Level Pressure  
Sea Level Pressure 30.27 in    
Wind  
Wind Speed 3 mph (SW)    
Max Wind Speed 15 mph    
Max Gust Speed 20 mph    
Visibility 10 miles    
Events      
T = Trace of Precipitation, MM = Missing Value Source: NWS Daily Summary

Daily Weather History Graph

Daily Weather History Graph

Search for Another Location

Airport or City:

Trip Planner

Search our weather history database for the weather conditions in past years. The results will help you decide how hot, cold, wet, or windy it might be!

Date:

Astronomy

Jan. 23, 2013 Rise Set
Actual Time 6:46 AM CST 5:03 PM CST
Civil Twilight 6:19 AM CST 5:30 PM CST
Nautical Twilight 5:48 AM CST 6:01 PM CST
Astronomical Twilight 5:18 AM CST 6:31 PM CST
Moon 2:15 PM CST (1/23) 3:55 AM CST (1/23)
Length of Visible Light 11h 11m
Length of Day
10h 17m
Waxing Gibbous, 89% of the Moon is Illuminated
Jan 23
Waxing Gibbous
Jan 26
Full
Feb 3
Last Quarter
Feb 10
New
Feb 17
First Quarter

Hourly Weather History & Observations

Time (CST) Temp. Windchill Dew Point Humidity Pressure Visibility Wind Dir Wind Speed Gust Speed Precip Events Conditions
12:15 AM 32.0 °F - 17.6 °F 55% 30.33 in 10.0 mi Calm Calm - N/A   Overcast
12:35 AM 32.0 °F - 17.6 °F 55% 30.32 in 10.0 mi Calm Calm - N/A   Overcast
12:55 AM 32.0 °F - 17.6 °F 55% 30.32 in 10.0 mi Calm Calm - N/A   Overcast
1:15 AM 32.0 °F - 19.4 °F 60% 30.33 in 10.0 mi Calm Calm - N/A   Overcast
1:35 AM 32.0 °F - 19.4 °F 60% 30.33 in 10.0 mi Calm Calm - N/A   Overcast
1:55 AM 32.0 °F - 19.4 °F 60% 30.33 in 10.0 mi Calm Calm - N/A   Overcast
2:15 AM 32.0 °F - 21.2 °F 64% 30.33 in 10.0 mi Calm Calm - N/A   Overcast
2:35 AM 32.0 °F - 19.4 °F 60% 30.33 in 10.0 mi Calm Calm - N/A   Overcast
2:55 AM 32.0 °F - 19.4 °F 60% 30.33 in 10.0 mi Calm Calm - N/A   Overcast
3:15 AM 32.0 °F - 19.4 °F 60% 30.33 in 10.0 mi Calm Calm - N/A   Overcast
3:35 AM 32.0 °F - 19.4 °F 60% 30.32 in 10.0 mi Calm Calm - N/A   Overcast
3:55 AM 32.0 °F - 17.6 °F 55% 30.32 in 10.0 mi Calm Calm - N/A   Overcast
4:15 AM 32.0 °F - 17.6 °F 55% 30.32 in 10.0 mi Calm Calm - N/A   Overcast
4:35 AM 32.0 °F - 17.6 °F 55% 30.32 in 10.0 mi Calm Calm - N/A   Overcast
4:55 AM 32.0 °F - 17.6 °F 55% 30.33 in 10.0 mi Calm Calm - N/A   Overcast
5:15 AM 32.0 °F - 17.6 °F 55% 30.34 in 10.0 mi Calm Calm - N/A   Overcast
5:35 AM 32.0 °F - 15.8 °F 51% 30.34 in 10.0 mi Calm Calm - N/A   Overcast
5:55 AM 32.0 °F - 15.8 °F 51% 30.34 in 10.0 mi Calm Calm - N/A   Overcast
6:15 AM 32.0 °F - 17.6 °F 55% 30.34 in 10.0 mi Calm Calm - N/A   Overcast
6:35 AM 32.0 °F - 17.6 °F 55% 30.34 in 10.0 mi Calm Calm - N/A   Overcast
6:55 AM 32.0 °F - 19.4 °F 60% 30.35 in 10.0 mi Calm Calm - N/A   Overcast
7:15 AM 32.0 °F - 19.4 °F 60% 30.35 in 10.0 mi Calm Calm - N/A   Overcast
7:35 AM 32.0 °F - 17.6 °F 55% 30.35 in 10.0 mi Calm Calm - N/A   Overcast
7:55 AM 32.0 °F - 17.6 °F 55% 30.35 in 10.0 mi Calm Calm - N/A   Overcast
8:15 AM 33.8 °F - 19.4 °F 56% 30.35 in 10.0 mi Calm Calm - N/A   Overcast
8:35 AM 33.8 °F - 19.4 °F 56% 30.35 in 10.0 mi Calm Calm - N/A   Overcast
8:55 AM 35.6 °F 32.8 °F 19.4 °F 52% 30.36 in 10.0 mi WSW 3.5 mph - N/A   Overcast
9:15 AM 35.6 °F - 19.4 °F 52% 30.36 in 10.0 mi Calm Calm - N/A   Overcast
9:35 AM 35.6 °F 32.8 °F 19.4 °F 52% 30.36 in 10.0 mi SW 3.5 mph - N/A   Overcast
9:55 AM 37.4 °F 34.9 °F 17.6 °F 45% 30.38 in 10.0 mi WSW 3.5 mph - N/A   Mostly Cloudy
10:15 AM 39.2 °F 35.0 °F 17.6 °F 42% 30.36 in 10.0 mi SW 5.8 mph - N/A   Clear
10:35 AM 41.0 °F 37.1 °F 17.6 °F 39% 30.35 in 10.0 mi SSW 5.8 mph - N/A   Clear
10:55 AM 42.8 °F 38.6 °F 17.6 °F 36% 30.35 in 10.0 mi SSW 6.9 mph - N/A   Clear
11:15 AM 44.6 °F 42.2 °F 19.4 °F 37% 30.33 in 10.0 mi SW 4.6 mph - N/A   Scattered Clouds
11:35 AM 44.6 °F 41.4 °F 19.4 °F 37% 30.32 in 10.0 mi WSW 5.8 mph - N/A   Scattered Clouds
11:55 AM 46.4 °F 41.9 °F 23.0 °F 40% 30.30 in 10.0 mi West 9.2 mph 17.3 mph N/A   Clear
12:15 PM 48.2 °F - 23.0 °F 37% 30.28 in 10.0 mi SW 10.4 mph 17.3 mph N/A   Clear
12:35 PM 48.2 °F - 24.8 °F 40% 30.26 in 10.0 mi West 6.9 mph 16.1 mph N/A   Clear
12:55 PM 50.0 °F - 26.6 °F 40% 30.25 in 10.0 mi WSW 15.0 mph 19.6 mph N/A   Clear
1:15 PM 50.0 °F - 26.6 °F 40% 30.24 in 10.0 mi WSW 9.2 mph 17.3 mph N/A   Clear
1:35 PM 51.8 °F - 26.6 °F 38% 30.24 in 10.0 mi West 11.5 mph 16.1 mph N/A   Clear
1:55 PM 51.8 °F - 26.6 °F 38% 30.23 in 10.0 mi WSW 12.7 mph 18.4 mph N/A   Clear
2:15 PM 51.8 °F - 26.6 °F 38% 30.22 in 10.0 mi West 5.8 mph - N/A   Clear
2:35 PM 53.6 °F - 28.4 °F 38% 30.21 in 10.0 mi SW 12.7 mph 16.1 mph N/A   Clear
2:55 PM 53.6 °F - 28.4 °F 38% 30.21 in 10.0 mi SW 8.1 mph - N/A   Clear
3:15 PM 53.6 °F - 28.4 °F 38% 30.21 in 10.0 mi WNW 8.1 mph - N/A   Clear
3:35 PM 53.6 °F - 28.4 °F 38% 30.21 in 10.0 mi West 6.9 mph - N/A   Mostly Cloudy
3:55 PM 51.8 °F - 28.4 °F 41% 30.19 in 10.0 mi WSW 11.5 mph - N/A   Mostly Cloudy
4:15 PM 51.8 °F - 30.2 °F 44% 30.19 in 10.0 mi WSW 9.2 mph - N/A   Scattered Clouds
4:35 PM 51.8 °F - 30.2 °F 44% 30.19 in 10.0 mi WSW 4.6 mph - N/A   Mostly Cloudy
4:55 PM 50.0 °F - 30.2 °F 47% 30.18 in 10.0 mi SW 3.5 mph - N/A   Scattered Clouds
5:15 PM 50.0 °F - 32.0 °F 50% 30.20 in 10.0 mi Calm Calm - N/A   Mostly Cloudy
5:35 PM 50.0 °F - 32.0 °F 50% 30.18 in 10.0 mi SSW 3.5 mph - N/A   Mostly Cloudy
5:55 PM 46.4 °F - 32.0 °F 57% 30.18 in 10.0 mi Calm Calm - N/A   Scattered Clouds
6:15 PM 46.4 °F 45.2 °F 32.0 °F 57% 30.18 in 10.0 mi SSW 3.5 mph - N/A   Mostly Cloudy
6:35 PM 50.0 °F - 32.0 °F 50% 30.18 in 10.0 mi SSW 5.8 mph - N/A   Overcast
6:55 PM 48.2 °F - 32.0 °F 54% 30.18 in 10.0 mi SW 3.5 mph - N/A   Overcast
7:15 PM 50.0 °F - 32.0 °F 50% 30.18 in 10.0 mi SW 8.1 mph - N/A   Overcast
7:35 PM 50.0 °F - 32.0 °F 50% 30.18 in 10.0 mi SW 9.2 mph - N/A   Overcast
7:55 PM 50.0 °F - 32.0 °F 50% 30.18 in 10.0 mi SW 6.9 mph - N/A   Overcast
8:15 PM 50.0 °F - 33.8 °F 54% 30.18 in 10.0 mi SW 5.8 mph - N/A   Overcast
8:35 PM 50.0 °F - 33.8 °F 54% 30.18 in 10.0 mi WSW 5.8 mph - N/A   Overcast
8:55 PM 50.0 °F - 33.8 °F 54% 30.18 in 10.0 mi SW 9.2 mph - N/A   Overcast
9:15 PM 50.0 °F - 33.8 °F 54% 30.19 in 10.0 mi WSW 8.1 mph - N/A   Overcast
9:35 PM 50.0 °F - 33.8 °F 54% 30.19 in 10.0 mi SW 8.1 mph - N/A   Overcast
9:55 PM 50.0 °F - 35.6 °F 58% 30.19 in 10.0 mi WSW 5.8 mph - N/A   Overcast
10:15 PM 50.0 °F - 35.6 °F 58% 30.19 in 10.0 mi SW 8.1 mph - N/A   Overcast
10:35 PM 50.0 °F - 35.6 °F 58% 30.19 in 10.0 mi SW 9.2 mph - N/A   Overcast
10:55 PM 50.0 °F - 35.6 °F 58% 30.19 in 10.0 mi SW 6.9 mph - N/A   Overcast
11:15 PM 50.0 °F - 35.6 °F 58% 30.19 in 10.0 mi WSW 9.2 mph - N/A   Overcast
11:55 PM 50.0 °F - 35.6 °F 58% 30.19 in 10.0 mi SW 5.8 mph - N/A   Overcast